Skip Page Navigation
NASA JPL Caltech
NASA Logo - Jet Propulsion Laboratory + View the NASA Portal
+ Near-Earth Object (NEO) Program
Search JPL
JPL Home Earth Solar System Stars & Galaxies Technology
JPL Solar System Dynamics
BODIES ORBITS EPHEMERIDES TOOLS PHYSICAL DATA DISCOVERY FAQ SITE MAP
JPL Small-Body Database Browser
Search: [ help ]  
(2009 VJ3)
Classification: Main-belt Asteroid          SPK-ID: 3477305
Ephemeris | Orbit Diagram | Orbital Elements | Physical Parameters ]

[ hide orbit diagram ]
Orbit Diagram
Note: Make sure you have Java enabled on your browser to see the applet. This applet is provided as a 3D orbit visualization tool. The applet was implemented using 2-body methods, and hence should not be used for determining accurate long-term trajectories (over several years or decades) or planetary encounter circumstances. For accurate long-term ephemerides, please instead use our Horizons system.
Orbit Viewer

Additional Notes: the orbits shown in the applet are color coded. The planets are white lines, and the asteroid/comet is a blue line. The bright white line indicates the portion of the orbit that is above the ecliptic plane, and the darker portion is below the ecliptic plane. Likewise for the asteroid/comet orbit, the light blue indicates the portion above the ecliptic plane, and the dark blue the portion below the ecliptic plane.

Orbit Viewer applet originally written and kindly provided by Osamu Ajiki (AstroArts), and further modified by Ron Baalke (JPL).


Orbital Elements at Epoch 2456400.5 (2013-Apr-18.0) TDB
Reference: MPO179997 (heliocentric ecliptic J2000)
 Element Value Uncertainty (1-sigma)   Units 
e 0.2712037 n/a  
a 2.7364227 n/a AU
q 1.9942947 n/a AU
i 13.38626 n/a deg
node 242.50870 n/a deg
peri 156.51138 n/a deg
M 285.13157 n/a deg
tp 2456744.3503123
(2014-Mar-27.85031230)
n/a JED
period 1653.3819722
4.53
n/a
n/a
d
yr
n 0.21773553 n/a deg/d
Q 3.4785507 n/a AU
  Orbit Determination Parameters
   # obs. used (total)      51  
   data-arc span      108 days  
   first obs. used      2009-11-10  
   last obs. used      2010-02-26  
   # oppositions      1  
   planetary ephem.      DE403  
   condition code      4  
   fit RMS      0.43  
   data source      MPC:mpo  
   producer      MPCW  

Additional Information
 T_jup = 3.260 
 1-opposition object seen prior 

Ephemeris | Orbit Diagram | Orbital Elements | Physical Parameters ]

Physical Parameter Table
Parameter Symbol Value Units Sigma Reference Notes
absolute magnitude H 17.2 mag n/a MPO179997  
Ephemeris | Orbit Diagram | Orbital Elements | Physical Parameters ]
ABOUT SSD CREDITS/AWARDS PRIVACY/COPYRIGHT GLOSSARY LINKS
FirstGov 2013-May-19 07:50 UT
(server date/time)  
NASA Home Page
Site Manager:   Donald K. Yeomans
Webmaster  Alan B. Chamberlin